Regional Weather Roundup
Issued by NWS

Home | Current Version | Previous Version | Text Only | Print | Product List | Glossary On
Versions: 1 2 3 4 5 6 7 8 9 10 11 12 13 14 15 16 17 18 19 20 21 22 23 24 25 26 27 28 29 30 31 32 33 34 35 36 37 38 39 40 41 42 43 44 45 46 47 48 49 50
000
ASUS43 KMKX 232321
RWRWI

WISCONSIN REGIONAL WEATHER ROUNDUP
NATIONAL WEATHER SERVICE MILWAUKEE/SULLIVAN WI
600 PM CDT MON OCT 23 2017

NOTE: "FAIR" INDICATES FEW OR NO CLOUDS BELOW 12,000 FEET WITH NO
SIGNIFICANT WEATHER AND/OR OBSTRUCTIONS TO VISIBILITY.

WIZ001-002-006>008-014>016-023>028-240000-
NORTHWEST WISCONSIN

CITY           SKY/WX    TMP DP  RH WIND       PRES   REMARKS
SUPERIOR ARPT  CLOUDY    49  43  79 NW10      29.77R
ASHLAND        CLOUDY    56  41  57 W15G25    29.70R
HAYWARD        MOCLDY    54  40  59 NW12G25   29.72R
SIREN          CLOUDY    49  40  68 NW13G22   29.79R
CUMBERLAND     PTCLDY    48  37  66 NW17G25   29.74R
RICE LAKE      CLOUDY    53  39  59 W16G26    29.75R
CHETEK         CLOUDY    54  41  60 NW7G20    29.72R
LADYSMITH      RAIN      51  47  84 CALM      29.72R
EAU CLAIRE     CLOUDY    55  39  54 W16G24    29.71R
MENOMONIE      CLEAR     53  40  61 W17G25    29.74R
NEW RICHMOND   CLOUDY    49  40  68 NW17G25   29.80R
OSCEOLA        CLOUDY    50  41  71 NW14G22   29.84R
$$

WIZ003>005-009-010-017-018-240000-
NORTH CENTRAL WISCONSIN

CITY           SKY/WX    TMP DP  RH WIND       PRES   REMARKS
MANITOWISH WTR CLOUDY    52  43  70 CALM      29.68R
ARBOR VITAE    DRIZZLE   52  44  76 CALM      29.67F
WOODRUFF       DRIZZLE   52  44  76 CALM      29.67F
RHINELANDER    LGT RAIN  50  44  80 CALM      29.68F
EAGLE RIVER    CLOUDY    49  42  76 CALM      29.66F
LAND O LAKES   CLOUDY    52  40  64 CALM      29.69S
PHILLIPS       CLOUDY    52  45  77 CALM      29.67F
TOMAHAWK       DRIZZLE   48  42  79 CALM      29.67F
MEDFORD        CLOUDY    49  43  79 CALM      29.67F
MERRILL        DRIZZLE   51  42  71 W7        29.67F
$$

WIZ029-030-035-036-043>047-240000-
CENTRAL WISCONSIN

CITY           SKY/WX    TMP DP  RH WIND       PRES   REMARKS
WAUSAU         LGT RAIN  52  42  69 W9        29.65F
MOSINEE        CLOUDY    52  43  71 W7        29.67F
MARSHFIELD     LGT RAIN  51  42  71 W6        29.67F
STEVENS POINT  CLOUDY    52  41  66 W5        29.66F
WAUPACA        CLOUDY    52  49  89 CALM      29.66F
WAUTOMA        CLOUDY   N/A N/A N/A CALM      29.66
WISC RAPIDS    CLOUDY    54  43  66 NW7       29.68F
CAMP DOUGLAS   CLOUDY    52  45  76 W8        29.69F
$$

WIZ011>013-019>022-031-037>040-048>050-240000-
NORTHEAST WISCONSIN

CITY           SKY/WX    TMP DP  RH WIND       PRES   REMARKS
ANTIGO         CLOUDY    47  43  84 CALM      29.66F
SHAWANO        CLOUDY    51  46  83 CALM      29.66F
OCONTO         CLOUDY    49  46  88 CALM      29.66F
STURGEON BAY   CLOUDY    50  47  89 N3        29.67F
GREEN BAY      CLOUDY    51  47  86 CALM      29.66F
MANITOWOC      NOT AVBL
APPLETON       MOCLDY    52  39  62 CALM      29.65F
CLINTONVILLE   CLOUDY    52  45  76 CALM      29.66F
OSHKOSH        CLOUDY    50  44  80 CALM      29.65F
$$

WIZ032>034-041-042-053>061-240000-
SOUTHWEST WISCONSIN

CITY           SKY/WX    TMP DP  RH WIND       PRES   REMARKS
LA CROSSE      CLOUDY    57  45  64 W6        29.71F
SPARTA         CLOUDY    50  47  90 CALM      29.71F
VIROQUA        MOCLDY    49  47  92 W3        29.71F
BOSCOBEL       CLOUDY    52  48  86 CALM      29.72F
PRAIRIE DU CHI CLOUDY    55  45  71 SW3       29.73S
PLATTEVILLE    CLOUDY    51  49  95 W5        29.73F
$$

WIZ056-057-062-063-064-067-068-240000-
SOUTH CENTRAL WISCONSIN

CITY           SKY/WX    TMP DP  RH WIND       PRES   REMARKS
REEDSBURG      DRIZZLE   53  42  67 W14       29.69S
BARABOO/DELLS  CLOUDY    54  41  61 W13       29.67F
LONE ROCK      LGT RAIN  53  45  74 NW16G23   29.71S
MINERAL POINT  RAIN      52  48  87 NW8       29.71S
MADISON        CLOUDY    55  44  66 W5        29.66F
MIDDLETON      CLOUDY    56  46  69 W10       29.67F
WATERTOWN      MOCLDY    50  47  90 CALM      29.65F
MONROE         CLOUDY    54  43  66 W12       29.67F
JANESVILLE     CLEAR     54  46  76 CALM      29.66F
$$

WIZ051-052-058>065-066-070>072-240000-
SOUTHEAST WISCONSIN

CITY           SKY/WX    TMP DP  RH WIND       PRES   REMARKS
MILWAUKEE      CLOUDY    54  46  74 NW6       29.66F
WAUKESHA       MOCLDY    48  43  81 W7        29.66F
MILWAUKEE/TIMM MOCLDY    52  43  71 NW5       29.67S
RACINE         CLOUDY    52  49  89 CALM      29.68F
BURLINGTON     CLOUDY    49  46  87 CALM      29.66F
KENOSHA        CLOUDY    51  48  89 CALM      29.66F
FOND DU LAC    CLOUDY    50  44  80 CALM      29.66F
SHEBOYGAN      MOCLDY    51  47  86 CALM      29.66F
WEST BEND      CLOUDY    50  45  81 W6        29.65F
JUNEAU         CLOUDY    49  45  85 CALM      29.67F
$$

LSZ147-162-240000-
LAKE SUPERIOR

STATION/POSITION TIME  TEMP    WIND        PRES    WAVE
                       AIR SEA DIR/SP/G            HT/PER
                 (UTC) (F)     (DEG/KT/KT) (MB)    (FT/S)
W MID LAKE BUOY  2250   53 51              1005.1R   1/ 4
DEVILS ISLAND    2300   55     330/ 14/ 16 1005.9R
SAXON HARBOR     2230   57     200/  2/  2 1004.7R
$$

LMZ867-665-643>646-240000-
LAKE MICHIGAN

STATION/POSITION TIME  TEMP    WIND        PRES    WAVE
                       AIR SEA DIR/SP/G            HT/PER
                 (UTC) (F)     (DEG/KT/KT) (MB)    (FT/S)
S GREEN BAY BUOY 2300   53 58  340/  6/  8 1004.8
N MID LAKE BUOY  2250   54 57   30/  8/ 12 1005.0F
NORTHPORT PIER   2240   52      50/  5/  6 1004.7F
KEWAUNEE LAKESHO 2254   48     350/  3/  5 1003.8F
SHEBOYGAN LAKESH 2300   50     340/  5/  6 1004.2F
PORT WASHINGTON  2240   53     310/  1/  3 1005.4F
MILWAUKEE LAKESH 2300   53     330/  4/  5   N/A
S MID LAKE BUOY  2250   55 60  340/ 19/ 23 1003.0F   3/ 5
KENOSHA   LAKESH 2300   53     300/  4/  7 1004.4
$$

TC  - TEMPERATURE IN CELSIUS
VSB - VISIBILITY IN STATUTE MILES
WCI - WIND CHILL INDEX
HX  - HEAT INDEX




USA.gov is the U.S. government's official web portal to all federal, state and local government web resources and services.